| time (UTC) | temp F | wind direction | speed MPH | gust MPH | rain 1hr in | rain 24hr in | rain mn in | humidity % | barometer mb |
| 20260504120112 | 52 | 299 | 3.0 | 6.0 | 0.00 | 0.01 | 0.00 | 57 | 1010.6 |
| 20260504081555 | 31 | 0 | 0.0 | 2.0 | 0.00 | 0.01 | 0.00 | 100 | 1010.9 |
| 20260504050120 | 35 | 0 | 0.0 | 1.0 | 0.00 | 0.01 | 0.00 | 47 | 1011.1 |
| 20260504044551 | 36 | 0 | 0.0 | 0.0 | 0.00 | 0.01 | 0.00 | 52 | 1011.1 |
| 20260504043057 | 36 | 0 | 0.0 | 0.0 | 0.00 | 0.01 | 0.00 | 53 | 1010.9 |
| 20260504041549 | 36 | 0 | 0.0 | 0.0 | 0.00 | 0.01 | 0.00 | 60 | 1011.1 |
| 20260504040049 | 36 | 0 | 0.0 | 0.0 | 0.00 | 0.01 | 0.00 | 65 | 1011.0 |
| 20260504034552 | 37 | 0 | 0.0 | 0.0 | 0.00 | 0.01 | 0.01 | 67 | 1010.9 |
| 20260504033051 | 36 | 0 | 0.0 | 0.0 | 0.00 | 0.01 | 0.01 | 69 | 1011.0 |
| 20260504031610 | 37 | 0 | 0.0 | 1.0 | 0.00 | 0.01 | 0.01 | 74 | 1010.9 |
| 20260504030048 | 38 | 0 | 0.0 | 0.0 | 0.00 | 0.01 | 0.01 | 75 | 1010.7 |
| 20260504024549 | 39 | 0 | 0.0 | 1.0 | 0.00 | 0.01 | 0.01 | 75 | 1010.9 |
| 20260504023051 | 40 | 0 | 0.0 | 0.0 | 0.00 | 0.01 | 0.01 | 73 | 1010.8 |
| 20260504021552 | 41 | 337 | 1.0 | 2.0 | 0.00 | 0.01 | 0.01 | 70 | 1010.7 |
| 20260504020055 | 43 | 0 | 0.0 | 0.0 | 0.00 | 0.01 | 0.01 | 66 | 1010.7 |
| 20260504014553 | 44 | 0 | 0.0 | 0.0 | 0.00 | 0.01 | 0.01 | 63 | 1010.7 |
| 20260504013057 | 45 | 0 | 0.0 | 2.0 | 0.00 | 0.01 | 0.01 | 61 | 1010.6 |
| 20260504011555 | 48 | 0 | 0.0 | 4.0 | 0.00 | 0.01 | 0.01 | 55 | 1010.4 |
| 20260504010058 | 49 | 288 | 2.0 | 6.0 | 0.00 | 0.01 | 0.01 | 51 | 1010.1 |
| 20260504004558 | 49 | 200 | 1.0 | 7.0 | 0.00 | 0.01 | 0.01 | 50 | 1009.9 |
| 20260504003054 | 50 | 302 | 5.0 | 12.0 | 0.00 | 0.01 | 0.01 | 49 | 1009.8 |
| 20260504001609 | 51 | 311 | 4.0 | 16.0 | 0.00 | 0.01 | 0.01 | 47 | 1009.8 |
| 20260504000058 | 51 | 343 | 7.0 | 17.0 | 0.00 | 0.01 | 0.01 | 46 | 1009.4 |
| 20260503234554 | 51 | 281 | 6.0 | 16.0 | 0.00 | 0.01 | 0.01 | 45 | 1009.2 |
| 20260503233059 | 51 | 297 | 6.0 | 17.0 | 0.00 | 0.01 | 0.01 | 44 | 1009.1 |
| 20260503231555 | 52 | 283 | 3.0 | 8.0 | 0.00 | 0.01 | 0.01 | 42 | 1009.0 |
| 20260503230051 | 52 | 316 | 10.0 | 21.0 | 0.00 | 0.01 | 0.01 | 40 | 1009.2 |
| 20260503224553 | 52 | 287 | 9.0 | 17.0 | 0.00 | 0.01 | 0.01 | 38 | 1009.0 |
| 20260503223052 | 52 | 281 | 5.0 | 16.0 | 0.00 | 0.01 | 0.01 | 35 | 1008.9 |
| 20260503221553 | 52 | 312 | 4.0 | 11.0 | 0.00 | 0.01 | 0.01 | 35 | 1008.7 |
| 20260503220050 | 53 | 326 | 9.0 | 23.0 | 0.00 | 0.01 | 0.01 | 32 | 1008.5 |
| 20260503214555 | 53 | 304 | 5.0 | 15.0 | 0.00 | 0.01 | 0.01 | 31 | 1008.4 |
| 20260503213117 | 53 | 295 | 10.0 | 22.0 | 0.00 | 0.01 | 0.01 | 30 | 1008.6 |
| 20260503211619 | 54 | 207 | 7.0 | 20.0 | 0.00 | 0.01 | 0.01 | 30 | 1008.2 |
| 20260503210052 | 54 | 279 | 7.0 | 14.0 | 0.00 | 0.01 | 0.01 | 28 | 1008.3 |
| 20260503204603 | 53 | 326 | 3.0 | 12.0 | 0.01 | 0.01 | 0.01 | 33 | 1008.3 |
| 20260503203050 | 52 | 288 | 9.0 | 17.0 | 0.01 | 0.01 | 0.01 | 31 | 1008.6 |
| 20260503201553 | 52 | 285 | 7.0 | 19.0 | 0.01 | 0.01 | 0.01 | 33 | 1008.7 |
| 20260503200052 | 52 | 239 | 6.0 | 21.0 | 0.01 | 0.01 | 0.01 | 33 | 1008.9 |
| 20260503194551 | 53 | 265 | 9.0 | 22.0 | 0.00 | 0.00 | 0.00 | 35 | 1008.7 |
| 20260503193050 | 52 | 297 | 8.0 | 20.0 | 0.00 | 0.00 | 0.00 | 33 | 1008.7 |
| 20260503191603 | 51 | 305 | 10.0 | 21.0 | 0.00 | 0.00 | 0.00 | 35 | 1008.9 |
| 20260503190054 | 50 | 330 | 6.0 | 19.0 | 0.00 | 0.00 | 0.00 | 37 | 1009.3 |
| 20260503184630 | 50 | 295 | 7.0 | 18.0 | 0.00 | 0.00 | 0.00 | 38 | 1009.5 |
| 20260503183059 | 49 | 338 | 8.0 | 17.0 | 0.00 | 0.00 | 0.00 | 39 | 1009.6 |
| 20260503181552 | 49 | 328 | 5.0 | 13.0 | 0.00 | 0.00 | 0.00 | 41 | 1009.8 |
| 20260503180056 | 48 | 343 | 9.0 | 21.0 | 0.00 | 0.00 | 0.00 | 41 | 1009.8 |
| 20260503174610 | 48 | 277 | 4.0 | 16.0 | 0.00 | 0.00 | 0.00 | 40 | 1010.1 |
| 20260503173118 | 47 | 311 | 12.0 | 22.0 | 0.00 | 0.00 | 0.00 | 43 | 1010.1 |
| 20260503171554 | 46 | 67 | 7.0 | 19.0 | 0.00 | 0.00 | 0.00 | 41 | 1010.2 |